EW7405 Weather Reports


time (UTC)temp
C
wind
direction
speed
KPH
gust
KPH
rain 1hr
cm
rain 24hr
cm
rain mn
cm
humidity
%
barometer
mb
20260504174510 9 285 0.0 6.4 0.00 0.20 0.20 87 1007.4
20260504173007 8 282 0.0 1.6 0.00 0.20 0.20 87 1007.5
20260504171504 8 261 0.0 4.8 0.00 0.20 0.20 87 1007.4
20260504150108 7 267 0.0 1.6 0.08 0.10 0.10 93 1007.2
20260504100111 0 38 0.0 0.0 0.00 0.03 0.00 92 1008.0
20260504081552 0 38 0.0 0.0 0.00 0.08 0.00 92 1008.2
20260504080109 -1 38 0.0 0.0 0.00 0.08 0.00 92 1008.1
20260504044532 -1 38 0.0 0.0 0.00 0.20 0.00 91 1008.4
20260504043033 -1 34 0.0 0.0 0.00 0.20 0.00 91 1008.5
20260504041529 -1 36 0.0 0.0 0.00 0.20 0.00 91 1008.5
20260504040046 -1 44 0.0 0.0 0.00 0.20 0.00 91 1008.5
20260504034526 -1 44 0.0 0.0 0.00 0.30 0.20 91 1008.3
20260504033025 -1 44 0.0 0.0 0.00 0.30 0.20 90 1008.3
20260504031525 -1 44 0.0 0.0 0.00 0.30 0.20 90 1008.3
20260504030025 -1 44 0.0 0.0 0.00 0.30 0.20 90 1008.2
20260504024523 -1 44 0.0 1.6 0.00 0.36 0.20 89 1008.3
20260504023021 -1 17 0.0 0.0 0.00 0.36 0.20 90 1008.4
20260504021521 -1 17 0.0 0.0 0.00 0.36 0.20 89 1008.5
20260504020021 0 17 0.0 0.0 0.00 0.36 0.20 88 1008.4
20260504014523 0 17 0.0 0.0 0.00 0.43 0.20 88 1008.4
20260504013014 0 15 0.0 0.0 0.00 0.43 0.20 88 1008.3
20260504011510 0 15 0.0 0.0 0.00 0.43 0.20 87 1008.2
20260504010009 1 15 0.0 0.0 0.00 0.43 0.20 87 1007.9
20260504004504 1 259 0.0 0.0 0.00 0.61 0.20 85 1007.8
20260504003003 2 258 0.0 0.0 0.00 0.61 0.20 83 1007.7
20260504001502 3 257 0.0 0.0 0.00 0.61 0.20 80 1007.7
20260504000001 3 257 0.0 0.0 0.00 1.02 0.20 78 1007.6
20260503234600 4 257 0.0 0.0 0.00 1.02 0.20 74 1007.5
20260503234505 4 257 0.0 0.0 0.00 1.02 0.20 73 1007.6
20260503233059 5 257 0.0 0.0 0.00 1.02 0.20 70 1007.5
20260503231559 5 248 0.0 0.0 0.00 1.02 0.20 64 1007.5
20260503230103 5 287 0.0 1.6 0.00 1.02 0.20 65 1007.5
20260503224558 5 230 0.0 0.0 0.00 1.04 0.20 64 1007.5
20260503223058 5 273 0.0 4.8 0.00 1.04 0.20 67 1007.4
20260503221558 5 231 0.0 1.6 0.00 1.04 0.20 66 1007.3
20260503220057 5 205 0.0 0.0 0.00 1.04 0.20 62 1007.4
20260503214556 5 226 0.0 3.2 0.00 1.04 0.20 59 1007.3
20260503213056 5 242 0.0 12.9 0.00 1.04 0.20 61 1007.4
20260503211557 5 123 0.0 8.0 0.00 1.04 0.20 66 1007.4
20260503210055 5 273 0.0 4.8 0.00 1.04 0.20 70 1007.3
20260503204555 6 263 0.0 17.7 0.00 1.04 0.20 60 1007.2
20260503203053 6 229 0.0 3.2 0.00 1.04 0.20 57 1007.0
20260503201553 6 296 0.0 1.6 0.00 1.04 0.20 62 1007.1
20260503200058 5 275 0.0 16.1 0.00 1.04 0.20 62 1007.2
20260503194552 6 105 0.0 8.0 0.00 1.04 0.20 63 1007.4
20260503193059 6 269 0.0 9.7 0.00 1.04 0.20 60 1007.3
20260503191603 6 110 0.0 4.8 0.00 1.04 0.20 59 1007.2
20260503190050 6 265 0.0 6.4 0.00 1.04 0.20 56 1007.2
20260503184550 6 201 0.0 16.1 0.00 1.07 0.20 56 1007.2
20260503183107 5 11 0.0 11.3 0.00 1.07 0.20 59 1007.5
20260503181617 6 281 0.0 14.5 0.00 1.07 0.20 63 1007.2
20260503180048 6 56 0.0 11.3 0.00 1.07 0.20 54 1007.2